Flag for Romania Weather past 2 weeks in Oradea, Romania

Now
66 °F

Sunny.


Feels Like: 66 °F
Forecast: 59 / 74 °F
Wind: 16 mph from Northeast

Location: Oradea Airport

Current Time: May 22, 2015 at 1:43:21 PM

Latest Report: May 22, 2015 at 1:00 PM


Visibility: 10 mi

Pressure: 30.01 "Hg

Humidity: 83%

Dew point: 61 °F

Location of OradeaLocation

Historic Weather in Oradea — Graph

°F

Oradea temperature yesterday

Maximum temperature yesterday: 81 °F (at 2:00 PM)
Minimum temperature yesterday: 57 °F (at 5:00 AM)
Average temperature yesterday: 70 °F

Past Weeks' High & Low Weather Summary

 TemperatureHumidityPressure
High84 °F (May 19, 4:30 PM)94% (May 8, 5:00 AM)30.33 "Hg (May 8, 5:00 AM)
Low43 °F (May 12, 5:30 AM)27% (May 9, 1:30 PM)29.71 "Hg (May 14, 4:00 PM)
Average63 °F62%30.03 "Hg
* Reported May 7 12:00 Noon — May 22 12:00 Noon, Oradea, Weather by CustomWeather, © 2015

Note: Actual official high and low records may vary slightly from our data, if they occured in-between our weather recording intervals... More about our weather records

Advertising

Oradea weather history for previous 24 hours

 ConditionsComfort  
Time TempWeatherWind HumidityBarometerVisibility
12:00 PM
Fri, May 22
66 °FSunny.13 mph83%30.04 "Hg10 mi
11:30 AM64 °FSunny.13 mph83%30.04 "Hg10 mi
11:00 AM64 °FSunny.10 mph88%30.04 "Hg10 mi
10:30 AM64 °FSunny.10 mph88%30.04 "Hg10 mi
10:00 AM64 °FSunny.9 mph83%30.04 "Hg10 mi
9:30 AM63 °FSunny.9 mph88%30.04 "Hg10 mi
9:00 AM63 °FPassing clouds.5 mph88%30.04 "HgN/A
8:30 AM61 °FLight rain. Passing clouds.8 mph94%30.01 "HgN/A
8:00 AM61 °FPassing clouds.7 mph88%30.01 "HgN/A
7:30 AM61 °FRain. Scattered clouds.7 mph94%30.01 "Hg4 mi
7:00 AM61 °FLight rain. Clear.5 mph88%30.04 "Hg5 mi
6:30 AM59 °FRain. Passing clouds.6 mph94%30.01 "Hg4 mi
6:00 AM59 °FRain. Partly cloudy.3 mph94%30.04 "Hg3 mi
5:30 AM59 °FLight rain. Mostly cloudy.2 mph94%30.04 "Hg5 mi
5:00 AM59 °FSprinkles. Passing clouds.2 mph94%30.04 "Hg6 mi
4:00 AM61 °FSprinkles. Passing clouds.7 mph88%30.01 "Hg4 mi
3:00 AM63 °FSprinkles. Passing clouds.1 mph88%30.01 "Hg5 mi
2:00 AM63 °FSprinkles. Partly cloudy.5 mph94%30.04 "HgN/A
1:00 AM63 °FSprinkles. Mostly cloudy.2 mph88%30.04 "HgN/A
12:00 AM64 °FPartly cloudy.6 mph83%30.04 "HgN/A
11:30 PM
Thu, May 21
64 °FPartly cloudy.6 mph88%30.01 "HgN/A
11:00 PM66 °FPartly cloudy.6 mph83%30.01 "HgN/A
10:30 PM66 °FPassing clouds.5 mph78%30.01 "HgN/A
10:00 PM64 °FPartly sunny.3 mph83%29.98 "HgN/A
9:30 PM64 °FBroken clouds.3 mph83%29.98 "HgN/A
9:00 PM68 °FThunderstorms. Broken clouds.8 mph83%29.95 "HgN/A
8:30 PM72 °FThunderstorms. Broken clouds.8 mph73%29.95 "HgN/A
7:30 PM77 °FBroken clouds.5 mph61%29.95 "HgN/A
7:00 PM77 °FScattered clouds.5 mph57%29.92 "HgN/A
6:30 PM79 °FScattered clouds.7 mph51%29.92 "HgN/A
6:00 PM79 °FPassing clouds.3 mph51%29.92 "HgN/A
5:30 PM81 °FPassing clouds.6 mph45%29.92 "HgN/A
5:00 PM81 °FPassing clouds.6 mph45%29.92 "HgN/A
4:30 PM81 °FPassing clouds.6 mph48%29.95 "HgN/A
4:00 PM81 °FPassing clouds.7 mph45%29.95 "HgN/A
3:30 PM79 °FPassing clouds.7 mph51%29.95 "HgN/A
3:00 PM81 °FPassing clouds.10 mph42%29.95 "HgN/A
2:30 PM81 °FPassing clouds.10 mph42%29.95 "HgN/A
2:00 PM81 °FPassing clouds.6 mph42%29.95 "HgN/A
1:00 PM79 °FPassing clouds.6 mph48%29.95 "HgN/A
Weather by CustomWeather, © 2015

See weather overviewHow to use our weather pages